This is the latest recevied weather packets stored in our database for station/object KC5TIL-3. If no packets are shown the sender has not sent any weather packets the latest 10 day(s).
| Time | Temp. | Humidity | Pressure | Rain* | Wind** | Luminosity | Snow |
|---|---|---|---|---|---|---|---|
| 1777692507 | 15.56° C | 34% | 1016.8 hPa | 0 mm | 0 m/s | - | - |
| 1777692205 | 15.56° C | 34% | 1016.8 hPa | 0 mm | 0 m/s | - | - |
| 1777691907 | 15.56° C | 34% | 1016.8 hPa | 0 mm | 1.79 m/s, 117° | - | - |
| 1777691609 | 15.56° C | 34% | 1016.8 hPa | 0 mm | 1.79 m/s, 117° | - | - |
| 1777691307 | 15.56° C | 34% | 1016.8 hPa | 0 mm | 2.24 m/s, 117° | - | - |
| 1777690712 | 15.56° C | 32% | 1016.8 hPa | 0 mm | 2.24 m/s, 121° | - | - |
| 1777690410 | 15.56° C | 32% | 1016.8 hPa | 0 mm | 1.34 m/s, 117° | - | - |
| 1777690112 | 15.56° C | 31% | 1015.8 hPa | 0 mm | 1.79 m/s, 116° | - | - |
| 1777689813 | 15.56° C | 31% | 1015.8 hPa | 0 mm | 2.24 m/s, 120° | - | - |
| 1777689544 | 15.56° C | 31% | 1015.8 hPa | 0 mm | 2.24 m/s, 123° | - | - |
| 1777689512 | 15.56° C | 31% | 1015.8 hPa | 0 mm | 2.24 m/s, 123° | - | - |
| 1777689205 | 15.56° C | 31% | 1015.8 hPa | 0 mm | 2.24 m/s, 113° | - | - |
| 1777688907 | 15.56° C | 31% | 1015.8 hPa | 0 mm | 1.79 m/s, 116° | - | - |
| 1777688605 | 15.56° C | 31% | 1015.8 hPa | 0 mm | 2.24 m/s, 116° | - | - |
| 1777688307 | 15.56° C | 31% | 1015.8 hPa | 0 mm | 2.68 m/s, 113° | - | - |
| 1777688010 | 15.56° C | 31% | 1015.8 hPa | 0 mm | 1.79 m/s, 111° | - | - |
| 1777687708 | 15.56° C | 30% | 1015.8 hPa | 0 mm | 2.68 m/s, 112° | - | - |
| 1777687409 | 16.11° C | 30% | 1015.8 hPa | 0 mm | 2.68 m/s, 129° | - | - |
| 1777687112 | 16.11° C | 30% | 1015.8 hPa | 0 mm | 3.13 m/s, 115° | - | - |
| 1777686809 | 16.11° C | 30% | 1015.8 hPa | 0 mm | 1.79 m/s, 110° | - | - |
| 1777686511 | 16.11° C | 30% | 1014.8 hPa | 0 mm | 2.24 m/s, 116° | - | - |
| 1777686214 | 16.11° C | 32% | 1014.8 hPa | 0 mm | 1.79 m/s, 112° | - | - |
| 1777685912 | 16.11° C | 31% | 1014.8 hPa | 0 mm | 2.68 m/s, 108° | - | - |
| 1777685609 | 16.11° C | 31% | 1014.8 hPa | 0 mm | 2.24 m/s, 115° | - | - |
| 1777685311 | 16.11° C | 31% | 1014.8 hPa | 0 mm | 3.13 m/s, 107° | - | - |
* Rain latest hour (hover to see other rain measurements)
** Current wind speed in m/s (hover to see current wind gust speed)